Location: Doverdale
(52.2833°N, 2.2000°W)
Time: 05:15:52
(UTC+00:00)

BREEZE-M TANK - Pass Details

Date: 29 October 2020
Orbit: 546 x 24740 km, 45.2° (Epoch: 21 November)

Event Time Altitude Azimuth Distance (km) Brightness Sun altitude
Rises 16:58:18 0° 257° (WSW) 10,014 11.6 -2.8°
Reaches altitude 10° 17:08:08 10° 254° (WSW) 6,237 9.7 -4.2°
Maximum altitude 17:20:10 47° 186° (S) 1,377 4.5 -6.0°
Drops below altitude 10° 17:24:06 10° 110° (ESE) 2,100 4.8 -6.6°
Enters shadow 17:24:54 - 106° (ESE) 2,449 5.1 -6.7°
